Volver al catálogo

STARLINK-11269

ActivoComunicacionesVLEO
NORAD 60995·PAYLOAD·🇺🇸 United States

Lanzado Sep 5, 2024 desde Cape Canaveral Space Force Station

Loading…

Próximos Pases (próximas 24 horas)

TLE

ActualizadoSource: CelesTrak SupGP

Época: Sep 14, 2026, 21:36 UTC

1 60995C 24158F   26257.90048611  .00065891  00000+0  54295-3 0  2573
2 60995  53.1573  68.7659 0001187  69.8339 125.5708 15.69668304    18

Sigue STARLINK-11269 en tiempo real con AllMySat

Download on the App Store